Content
SEND FEEDBACK

Daily
Averages
Monthly
Summary
United States of America

SWANNANOA - BEETREE RESERVOIR, NORTH CAROLINA


Home > North America > United States > North Carolina
Elevation: 254 feet     Latitude: 35 38N     Longitude: 082 24W

WEATHER
 
SELECT A DAY
Number of Records: 225,562;   Date Range: 1/1/95 - 7/20/14
 
SHARE

PRINT THIS DATA

[ ← Previous Day ]
WEATHER ALMANAC - JANUARY 21, 2013
[ Next Day → ]
[ °C ]   °F
Weather ElementAverageHighLow
Temperature37.3 °F51.1 °F (1:54 pm)24.1 °F (7:54 am)
Dewpoint20.9 °F30 °F (9:54 am)10.9 °F (5:54 pm)
Humidity56.8 %91 % (7:54 am)29 % (5:54 pm)
Barometer30.04 in30.10 in (9:54 am)29.97 in (1:54 pm)
Wind Speed6.9 mph17.3 mph (10:54 am)
Wind Gust25.3 mph (10:54 am)
Weather ElementAverage
Visibility10 mi
Wind DirectionS (183.5 °)

Weather ElementTotal
Precipitation---
Heating Degree Days27.4 (Base 65)
Averaged from 23 records on January 21, 2013
WEATHER CONDITIONS BREAKOUT
WIND DIRECTION BREAKOUT
WEATHER BY HOUR - JANUARY 21, 2013
[ °C ]   °F
Local TimeTemperatureDewpointHumidityBarometerVisibilityWind DirectionWind SpeedGust SpeedPrecipitationEventsConditions
1:54 AM30.0 °F27.0 °F88 %30.09 in10.0 miCalmClear
2:54 AM28.9 °F26.1 °F89 %30.09 in10.0 miNNW (340°)3.5 mphClear
3:54 AM28.0 °F25.0 °F88 %30.08 in10.0 miCalmClear
4:54 AM28.0 °F25.0 °F88 %30.07 in10.0 miCalmClear
5:54 AM27.0 °F24.1 °F89 %30.07 in10.0 miCalmClear
6:54 AM27.0 °F24.1 °F89 %30.07 in10.0 miCalmClear
7:54 AM24.1 °F21.9 °F91 %30.09 in10.0 miNorth (350°)3.5 mphClear
8:54 AM32.0 °F28.9 °F88 %30.09 in10.0 miNNW (330°)3.5 mphClear
9:54 AM37.0 °F30.0 °F76 %30.10 in10.0 miNNW (340°)6.9 mphClear
10:54 AM44.1 °F27.0 °F51 %30.08 in10.0 miNNW (340°)17.3 mph25.3 mphClear
11:54 AM48.0 °F25.0 °F41 %30.05 in10.0 miNNW (340°)13.8 mphClear
12:54 PM50.0 °F24.1 °F36 %30.00 in10.0 miNorth (350°)12.7 mph19.6 mphClear
1:54 PM51.1 °F26.1 °F38 %29.97 in10.0 miNorth (360°)11.5 mphClear
2:54 PM51.1 °F24.1 °F35 %29.98 in10.0 miNorth (360°)15.0 mph19.6 mphClear
3:54 PM50.0 °F21.9 °F33 %29.97 in10.0 miNorth (10°)8.1 mph18.4 mphClear
4:54 PM46.0 °F16.0 °F30 %29.99 in10.0 miNorth (350°)13.8 mphClear
5:54 PM41.0 °F10.9 °F29 %30.04 in10.0 miNorth (350°)12.7 mph21.9 mphClear
6:54 PM39.0 °F12.9 °F34 %30.03 in10.0 miVariable4.6 mphClear
7:54 PM37.9 °F12.9 °F36 %30.04 in10.0 miNorth (10°)6.9 mphClear
8:54 PM37.0 °F12.9 °F37 %30.02 in10.0 miVariable4.6 mphClear
9:54 PM35.1 °F12.9 °F40 %30.03 in10.0 miNNE (20°)4.6 mphClear
10:54 PM34.0 °F10.9 °F38 %30.03 in10.0 miNorth (10°)6.9 mphClear
11:54 PM30.9 °F10.9 °F43 %30.03 in10.0 miNorth (360°)9.2 mphClear
Hourly data recorded from KAVL, located miles away from Swannanoa - Beetree Reservoir, North Carolina







STORIES FROM OUR PARTNERS